Tucumcari, NM

5:46 AM MDT on August 28, 2016 (GMT -0600)
Tucumcari Municipal

Weather History for KTCC - January, 2014

Change the Weather History Date:

Tuesday, January 14, 2014

  Actual Average Record
Temperature  
Mean Temperature 40 °F -  
Max Temperature 53 °F 54 °F 78 °F (2004)
Min Temperature 26 °F 23 °F -7 °F (1963)
Degree Days  
Heating Degree Days 26    
Moisture  
Dew Point 15 °F    
Average Humidity 41    
Maximum Humidity 66    
Minimum Humidity 20    
Precipitation  
Precipitation 0.00 in - - ()
Sea Level Pressure  
Sea Level Pressure 30.25 in    
Wind  
Wind Speed 9 mph (North)    
Max Wind Speed 21 mph    
Max Gust Speed 24 mph    
Visibility 10 miles    
Events      
Averages and records for this station are not official NWS values.
T = Trace of Precipitation, MM = Missing Value Source: NWS Daily Summary

Daily Weather History Graph

Daily Weather History Graph

Search for Another Location

Airport or City:

Trip Planner

Search our weather history database for the weather conditions in past years. The results will help you decide how hot, cold, wet, or windy it might be!

Date:

Astronomy

Jan. 14, 2014 Rise Set
Actual Time 7:02 AM MST 5:04 PM MST
Civil Twilight 6:34 AM MST 5:32 PM MST
Nautical Twilight 6:03 AM MST 6:03 PM MST
Astronomical Twilight 5:33 AM MST 6:34 PM MST
Moon 4:10 PM MST (1/14) 5:39 AM MST (1/14)
Length of Visible Light 10h 57m
Length of Day
10h 02m
Waxing Gibbous, 98% of the Moon is Illuminated
Jan 14
Waxing Gibbous
Jan 15
Full
Jan 23
Last Quarter
Jan 30
New
Feb 6
First Quarter

Hourly Weather History & Observations

Time (MST) Temp. Windchill Dew Point Humidity Pressure Visibility Wind Dir Wind Speed Gust Speed Precip Events Conditions
12:53 AM 32.0 °F 25.6 °F 9.0 °F 38% 29.97 in 10.0 mi West 6.9 mph - N/A   Clear
1:53 AM 30.0 °F 23.2 °F 9.0 °F 41% 29.97 in 10.0 mi West 6.9 mph - N/A   Clear
2:53 AM 30.0 °F 22.4 °F 10.9 °F 45% 29.99 in 10.0 mi West 8.1 mph - N/A   Clear
3:53 AM 30.0 °F 22.4 °F 12.0 °F 47% 30.02 in 10.0 mi West 8.1 mph - N/A   Clear
4:53 AM 30.0 °F 23.2 °F 10.9 °F 45% 30.06 in 10.0 mi NNW 6.9 mph - N/A   Clear
5:53 AM 30.9 °F 22.2 °F 10.9 °F 43% 30.11 in 10.0 mi NNW 10.4 mph - N/A   Clear
6:53 AM 35.1 °F 25.9 °F 10.9 °F 37% 30.17 in 10.0 mi North 13.8 mph - N/A   Clear
7:53 AM 33.1 °F 28.7 °F 10.9 °F 40% 30.19 in 10.0 mi West 4.6 mph - N/A   Clear
8:53 AM 43.0 °F 38.8 °F 12.9 °F 30% 30.21 in 10.0 mi WNW 6.9 mph - N/A   Clear
9:53 AM 52.0 °F - 12.0 °F 20% 30.24 in 10.0 mi NNE 6.9 mph - N/A   Clear
10:53 AM 53.1 °F - 15.1 °F 22% 30.25 in 10.0 mi East 12.7 mph - N/A   Clear
11:53 AM 53.1 °F - 16.0 °F 23% 30.22 in 10.0 mi ENE 11.5 mph - N/A   Clear
12:53 PM 53.1 °F - 17.1 °F 24% 30.24 in 10.0 mi NNE 12.7 mph - N/A   Clear
1:53 PM 52.0 °F - 23.0 °F 32% 30.27 in 10.0 mi ENE 20.7 mph - N/A   Clear
2:53 PM 50.0 °F - 24.1 °F 36% 30.29 in 10.0 mi NE 15.0 mph 24.2 mph N/A   Clear
3:53 PM 48.0 °F - 21.0 °F 34% 30.33 in 10.0 mi ENE 16.1 mph - N/A   Clear
4:53 PM 44.1 °F 37.7 °F 19.0 °F 37% 30.37 in 10.0 mi ENE 12.7 mph - N/A   Clear
5:53 PM 39.0 °F 32.8 °F 18.0 °F 43% 30.41 in 10.0 mi ENE 9.2 mph - N/A   Clear
6:53 PM 37.9 °F 29.6 °F 18.0 °F 45% 30.43 in 10.0 mi ENE 13.8 mph - N/A   Clear
7:53 PM 34.0 °F 26.0 °F 19.0 °F 54% 30.47 in 10.0 mi East 10.4 mph - N/A   Clear
8:53 PM 30.9 °F 27.5 °F 17.1 °F 57% 30.45 in 10.0 mi East 3.5 mph - N/A   Clear
9:53 PM 27.0 °F - 15.1 °F 61% 30.43 in 10.0 mi Calm Calm - N/A   Clear
10:53 PM 26.1 °F 19.4 °F 15.1 °F 63% 30.42 in 10.0 mi WSW 5.8 mph - N/A   Clear
11:53 PM 27.0 °F 18.7 °F 17.1 °F 66% 30.41 in 10.0 mi West 8.1 mph - N/A   Clear